sat.trackr.live / text

‹ back to catalog

STARLINK-36380

NORAD 68344 · 2026-059Z

PAYLOAD ACTIVE UNKNOWN

§ Identity

Operator
Country
US
Launch date
2026-03-22
Launch site
AFETR
Launch vehicle
Mass (kg)
RCS (m²)

Purposes: comms

External: N2YO · Heavens-Above · Gunter

§ Orbital elements

Epoch: 2026-05-25T00:19:18.712128Z

Period
94.16 min
Inclination
53.1578°
Eccentricity
0.0001193
Mean motion
15.29375776 rev/d
Perigee alt
476.9 km
Apogee alt
478.5 km
Semi-major
6,855.8 km
B*
4.5382e-4
RAAN
354.2882°
Arg perigee
89.6301°
Mean anomaly
270.4836°
Rev number
985

§ Raw data

STARLINK-363801 68344U 26059Z   26145.01341102  .00012770  00000+0  45382-3 0  99982 68344  53.1578 354.2882 0001193  89.6301 270.4836 15.29375776  9853

JSON: /api/v1/satellites/68344 · /tle

For live sub-satellite position, see the globe view (requires WebGL).

§ Visibility from observer

Set your observer location to see the next 7 days of passes ≥ 10°. The values pass through the URL so the page stays shareable.

No JS? Fill the form by hand. The geolocation button needs JavaScript.